Flag for Germany Weather past 2 weeks in Strausberg, Brandenburg, Germany

Now
55 °F

Partly sunny.


Feels Like: 52 °F
Forecast: 52 / 57 °F
Wind: 15 mph from Southwest

Location: Berlin-Schoenefeld

Current Time: Sep 5, 2015 at 8:43:15 AM

Latest Report: Sep 5, 2015 at 8:20 AM


Visibility: N/A

Pressure: 29.80 "Hg

Humidity: 82%

Dew point: 50 °F

Location of StrausbergLocation

Historic Weather in Strausberg — Graph

°F

Strausberg temperature yesterday

Maximum temperature yesterday: 68 °F (at 3:20 PM)
Minimum temperature yesterday: 50 °F (at 4:50 AM)
Average temperature yesterday: 59 °F

Past Weeks' High & Low Weather Summary

 TemperatureHumidityPressure
High95 °F (Aug 31, 3:20 PM)100% (Aug 28, 4:50 AM)30.30 "Hg (Aug 28, 4:50 AM)
Low48 °F (Sep 3, 4:20 AM)21% (Aug 22, 3:50 PM)29.68 "Hg (Sep 1, 4:50 PM)
Average67 °F65%29.97 "Hg
* Reported Aug 21 7:20 AM — Sep 5 7:20 AM, Strausberg, Weather by CustomWeather, © 2015

Note: Actual official high and low records may vary slightly from our data, if they occured in-between our weather recording intervals... More about our weather records

Advertising

Strausberg weather history for previous 24 hours

 ConditionsComfort  
Time TempWeatherWind HumidityBarometerVisibility
7:20 AM
Sat, Sep 5
54 °FPartly cloudy.13 mph82%29.77 "HgN/A
6:50 AM54 °FPassing clouds.14 mph82%29.77 "HgN/A
6:20 AM52 °FPassing clouds.14 mph88%29.77 "Hg4 mi
5:50 AM55 °FLight rain. Partly cloudy.15 mph67%29.77 "HgN/A
5:20 AM54 °FPassing clouds.15 mph72%29.77 "HgN/A
4:50 AM54 °FClear.13 mph72%29.80 "Hg10 mi
4:20 AM54 °FClear.12 mph72%29.80 "Hg10 mi
3:50 AM54 °FClear.10 mph72%29.80 "Hg10 mi
3:20 AM54 °FClear.8 mph72%29.83 "Hg10 mi
2:50 AM55 °FClear.10 mph67%29.83 "Hg10 mi
2:20 AM55 °FClear.9 mph67%29.83 "Hg10 mi
1:50 AM57 °FClear.10 mph63%29.83 "Hg10 mi
1:20 AM55 °FClear.8 mph72%29.86 "Hg10 mi
12:50 AM55 °FClear.8 mph67%29.86 "Hg10 mi
12:20 AM55 °FClear.8 mph67%29.86 "Hg10 mi
11:50 PM
Fri, Sep 4
57 °FClear.7 mph63%29.86 "Hg10 mi
11:20 PM57 °FClear.8 mph63%29.89 "Hg10 mi
10:50 PM59 °FClear.9 mph59%29.89 "Hg10 mi
10:20 PM59 °FClear.9 mph59%29.89 "Hg10 mi
9:50 PM59 °FClear.10 mph59%29.89 "Hg10 mi
9:20 PM61 °FClear.9 mph55%29.89 "Hg10 mi
8:50 PM61 °FClear.7 mph55%29.89 "Hg10 mi
8:20 PM61 °FPassing clouds.6 mph59%29.89 "HgN/A
7:50 PM63 °FPassing clouds.3 mph56%29.86 "HgN/A
7:20 PM61 °FSunny.2 mph59%29.86 "Hg10 mi
6:50 PM61 °FPassing clouds.5 mph59%29.86 "HgN/A
6:20 PM64 °FPassing clouds.6 mph52%29.89 "HgN/A
5:50 PM64 °FSunny.8 mph52%29.89 "Hg10 mi
5:20 PM66 °FSunny.12 mph49%29.89 "Hg10 mi
4:50 PM68 °FScattered clouds.14 mph43%29.89 "HgN/A
4:20 PM66 °FScattered clouds.12 mph49%29.89 "HgN/A
3:50 PM66 °FScattered clouds.12 mph56%29.89 "HgN/A
3:20 PM68 °FScattered clouds.13 mph49%29.92 "HgN/A
2:50 PM66 °FPartly sunny.12 mph56%29.92 "HgN/A
2:20 PM66 °FPartly sunny.12 mph56%29.92 "HgN/A
1:50 PM66 °FScattered clouds.8 mph60%29.92 "HgN/A
1:20 PM64 °FScattered clouds.14 mph60%29.92 "HgN/A
12:50 PM63 °FScattered clouds.12 mph68%29.92 "HgN/A
12:20 PM66 °FScattered clouds.7 mph64%29.92 "HgN/A
11:50 AM64 °FScattered clouds.8 mph68%29.95 "HgN/A
11:20 AM63 °FScattered clouds.8 mph77%29.95 "HgN/A
10:50 AM63 °FScattered clouds.6 mph77%29.95 "HgN/A
10:20 AM63 °FSunny.6 mph73%29.95 "Hg10 mi
9:50 AM61 °FSunny.6 mph77%29.95 "Hg10 mi
9:20 AM59 °FSunny.6 mph82%29.92 "Hg10 mi
8:50 AM55 °FSunny.7 mph88%29.95 "Hg10 mi
8:20 AM55 °FSunny.2 mph88%29.92 "Hg10 mi
Weather by CustomWeather, © 2015

See weather overviewHow to use our weather pages